GW3459 Weather Reports


time (UTC)temp
F
wind
direction
speed
knots
gust
knots
rain 1hr
in
rain 24hr
in
rain mn
in
humidity
%
barometer
mb
20260506091824 48 315 1.7 1.7 0.07 0.50 0.50 99 1006.4
20260506091322 49 297 4.3 5.2 0.00 0.49 0.49 99 1006.2
20260506090819 49 19 1.7 1.7 0.05 0.49 0.49 99 1006.3
20260506090317 49 350 1.7 1.7 0.12 0.49 0.49 99 1005.8
20260506085813 49 338 0.9 1.7 0.12 0.48 0.48 99 1006.0
20260506085309 49 0 0.0 0.9 0.19 0.48 0.48 99 1006.0
20260506084806 49 346 0.0 0.0 0.12 0.46 0.46 99 1006.1
20260506084302 49 350 0.0 0.9 0.17 0.45 0.45 99 1006.0
20260506083759 49 8 0.9 1.7 0.24 0.44 0.44 99 1006.1
20260506083257 49 352 0.9 0.9 0.26 0.42 0.42 99 1006.3
20260506082754 49 0 1.7 1.7 0.19 0.40 0.40 99 1006.4
20260506082249 49 351 1.7 1.7 0.24 0.39 0.39 99 1006.1
20260506081747 50 5 0.9 0.9 0.19 0.37 0.37 99 1006.0
20260506081245 49 337 0.0 0.0 0.12 0.35 0.35 99 1006.2
20260506080743 50 2 2.6 2.6 0.12 0.34 0.34 99 1005.9
20260506080239 50 333 0.9 0.9 0.12 0.33 0.33 99 1005.9
20260506073223 50 336 0.0 0.9 0.07 0.29 0.29 99 1006.0
20260506072720 50 349 0.9 0.9 0.12 0.29 0.29 99 1006.0
20260506072217 50 322 0.9 0.9 0.05 0.28 0.28 99 1006.1
20260506071714 50 346 0.0 0.9 0.00 0.27 0.27 99 1005.7
20260506071212 50 351 1.7 1.7 0.07 0.27 0.27 99 1006.1
20260506070709 50 350 0.0 0.9 0.14 0.27 0.27 99 1005.9
20260506070206 50 341 1.7 1.7 0.12 0.26 0.26 99 1005.9
20260506062143 51 344 0.9 0.9 0.12 0.21 0.21 98 1006.1
20260506061639 51 341 0.9 1.7 0.07 0.20 0.20 98 1006.5
20260506061137 51 346 0.0 0.9 0.05 0.19 0.19 98 1006.6
20260506060635 51 337 0.9 0.9 0.05 0.19 0.19 98 1006.5
20260506060132 51 351 0.9 1.7 0.07 0.18 0.18 98 1006.5
20260506051104 52 359 0.0 0.0 0.12 0.08 0.08 98 1007.6
20260506050602 52 346 2.6 2.6 0.12 0.08 0.08 98 1007.5
20260506045052 52 359 1.7 1.7 0.07 0.05 0.05 98 1007.5
20260506044550 53 4 0.0 0.0 0.07 0.05 0.05 98 1007.6
20260506044046 53 332 2.6 2.6 0.00 0.04 0.04 98 1007.9
20260506043543 53 356 0.0 0.0 0.05 0.04 0.04 98 1007.8
20260506043042 54 19 0.9 1.7 0.05 0.04 0.04 98 1007.7
20260506042541 55 346 0.9 0.9 0.07 0.03 0.03 98 1007.5
20260506042038 57 316 2.6 2.6 0.14 0.03 0.03 98 1007.8
20260506041537 57 334 0.0 0.0 0.07 0.02 0.02 98 1007.7
20260506041033 57 349 0.0 0.0 0.05 0.01 0.01 98 1007.7
20260506040531 57 347 0.9 0.9 0.05 0.01 0.01 98 1007.6
20260506040027 57 280 1.7 1.7 0.07 0.66 0.66 98 1007.8
20260506035524 57 271 0.9 0.9 0.07 0.66 0.66 98 1007.8
20260506035021 57 296 2.6 4.3 0.00 0.65 0.65 98 1007.8
20260506034518 57 334 0.9 0.9 0.05 0.65 0.65 98 1007.7
20260506034015 57 332 0.9 1.7 0.05 0.65 0.65 98 1007.9
20260506033512 57 345 0.9 0.9 0.07 0.64 0.64 98 1007.8
20260506033009 57 317 0.9 0.9 0.12 0.64 0.64 98 1007.8
20260506032507 57 333 0.9 0.9 0.12 0.63 0.63 98 1008.0
20260506032003 57 228 0.0 0.9 0.24 0.63 0.63 98 1007.8
20260506031501 57 230 2.6 2.6 0.42 0.61 0.61 97 1007.8
20260506030958 57 333 0.0 0.0 0.38 0.58 0.58 97 1007.9
20260506030456 57 333 0.0 0.0 0.31 0.55 0.55 97 1007.7
20260506025952 57 349 0.0 0.0 0.24 0.52 0.52 97 1008.0
20260506025449 57 255 0.0 0.0 0.07 0.49 0.49 97 1007.8
20260506024946 57 336 0.0 0.0 0.05 0.48 0.48 97 1007.9
20260506024443 57 343 0.0 0.0 0.05 0.48 0.48 97 1008.0
20260506023938 57 343 0.0 0.0 0.00 0.47 0.47 97 1007.8
20260506023435 57 344 0.0 0.0 0.00 0.47 0.47 97 1007.6
20260506022932 57 344 0.0 0.0 0.07 0.47 0.47 97 1007.9
20260506022430 57 348 0.0 0.0 0.07 0.47 0.47 97 1007.8
20260506021928 57 349 0.0 0.0 0.05 0.46 0.46 97 1008.0
20260506021425 57 349 0.0 0.0 0.05 0.46 0.46 97 1007.9
20260506020922 57 349 0.0 0.0 0.07 0.45 0.45 96 1007.9
20260506020420 57 350 0.0 0.0 0.07 0.45 0.45 96 1007.9
20260506015916 57 350 0.0 0.0 0.05 0.44 0.44 96 1007.9
20260506015414 57 350 0.0 0.0 0.24 0.44 0.44 96 1008.2
20260506014910 57 341 0.0 0.0 0.26 0.43 0.43 96 1008.2
20260506014408 57 310 0.9 0.9 0.12 0.40 0.40 96 1008.3
20260506013904 57 345 0.0 0.0 0.05 0.39 0.39 96 1007.7
20260506013402 57 345 0.0 0.0 0.00 0.38 0.38 96 1007.7
20260506012858 57 339 0.0 0.9 0.00 0.38 0.38 95 1007.7
20260506012355 57 347 0.0 0.0 0.00 0.38 0.38 95 1007.6
20260506011852 57 348 0.0 0.0 0.00 0.38 0.38 95 1007.6
20260506011349 57 342 0.0 0.0 0.00 0.38 0.38 95 1007.5
20260506010846 57 355 0.0 0.9 0.00 0.38 0.38 95 1007.4
20260506010344 57 344 0.9 0.9 0.07 0.38 0.38 95 1007.5
20260506005841 57 348 0.0 0.9 0.07 0.38 0.38 94 1007.5
20260506005338 57 346 1.7 1.7 0.05 0.37 0.37 94 1007.5
20260506004833 58 21 0.9 1.7 0.28 0.37 0.37 93 1008.0
20260506004331 58 341 2.6 4.3 1.68 0.36 0.36 93 1008.0
20260506003827 61 28 4.3 5.2 1.56 0.29 0.29 91 1008.2
20260506003324 63 335 1.7 1.7 0.42 0.10 0.10 87 1007.1
20260506002820 63 353 1.7 1.7 0.00 0.03 0.03 83 1006.8
20260506002317 63 351 0.0 0.0 0.00 0.03 0.03 82 1006.6
20260506001812 63 354 0.0 0.9 0.00 0.03 0.03 82 1006.6
20260506001310 63 358 0.0 0.0 0.00 0.03 0.03 82 1006.6
20260506000806 64 343 0.0 0.0 0.00 0.03 0.03 81 1006.5
20260506000304 64 345 0.9 0.9 0.00 0.03 0.03 81 1006.7
20260505235801 64 338 0.0 0.0 0.00 0.03 0.03 81 1007.0
20260505235258 64 345 0.0 0.0 0.00 0.03 0.03 81 1006.6
20260505234755 64 346 0.9 0.9 0.00 0.03 0.03 80 1006.7
20260505234253 64 347 0.9 0.9 0.00 0.03 0.03 80 1006.7
20260505233749 64 1 0.0 0.9 0.00 0.03 0.03 79 1006.7
20260505233247 64 346 0.0 0.0 0.00 0.03 0.03 78 1006.7
20260505232744 64 347 0.0 0.0 0.00 0.03 0.03 78 1006.8
20260505232242 64 333 0.0 0.0 0.00 0.03 0.03 78 1006.5
20260505231738 65 333 0.0 0.0 0.00 0.03 0.03 78 1006.8
20260505231237 65 332 0.0 0.0 0.00 0.03 0.03 77 1006.8
20260505230735 65 344 0.0 0.0 0.00 0.03 0.03 76 1006.8
20260505230231 65 349 0.0 0.0 0.00 0.03 0.03 76 1006.9
20260505225728 65 349 0.0 0.0 0.00 0.03 0.03 76 1006.7
20260505225225 65 341 0.9 0.9 0.00 0.03 0.03 76 1006.8
20260505224720 65 341 0.9 0.9 0.00 0.03 0.03 76 1007.0
20260505224218 65 349 0.9 0.9 0.00 0.03 0.03 76 1007.0
20260505223716 65 331 0.9 0.9 0.00 0.03 0.03 76 1007.3
20260505223211 65 334 0.0 0.0 0.00 0.03 0.03 76 1007.1
20260505222708 65 337 0.0 0.9 0.00 0.03 0.03 76 1007.3
20260505222203 65 327 0.9 0.9 0.00 0.03 0.03 75 1007.1
20260505221701 65 328 0.9 0.9 0.00 0.03 0.03 75 1007.0
20260505221158 65 330 0.0 0.9 0.00 0.03 0.03 75 1007.4
20260505220655 65 329 0.9 0.9 0.00 0.03 0.03 75 1007.1
20260505220153 65 334 0.0 0.0 0.00 0.03 0.03 75 1007.1
20260505215650 65 322 0.9 0.9 0.00 0.03 0.03 75 1007.3
20260505215148 65 305 0.9 0.9 0.00 0.03 0.03 75 1007.3
20260505214646 65 320 0.9 0.9 0.00 0.03 0.03 75 1007.3
20260505214143 65 312 0.9 0.9 0.00 0.03 0.03 75 1007.3
20260505213640 65 326 0.0 0.9 0.00 0.03 0.03 75 1007.5
20260505213137 65 324 0.9 0.9 0.00 0.03 0.03 75 1007.4
20260505212632 65 326 0.9 0.9 0.00 0.03 0.03 76 1007.5
20260505212130 64 336 0.9 0.9 0.00 0.03 0.03 76 1007.3
20260505211627 65 320 1.7 1.7 0.00 0.03 0.03 75 1007.4
20260505211124 64 335 1.7 1.7 0.00 0.03 0.03 75 1007.3
20260505210621 64 246 1.7 1.7 0.00 0.03 0.03 75 1007.5
20260505210118 65 312 1.7 1.7 0.00 0.03 0.03 74 1007.5
20260505205615 65 306 0.9 1.7 0.00 0.03 0.03 73 1007.4
20260505205113 66 347 0.9 0.9 0.00 0.03 0.03 71 1007.5
20260505204610 67 337 0.9 0.9 0.00 0.03 0.03 67 1007.4
20260505204108 68 325 0.9 0.9 0.00 0.03 0.03 66 1007.4
20260505203604 68 299 1.7 1.7 0.00 0.03 0.03 64 1007.1
20260505203101 68 190 0.9 0.9 0.00 0.03 0.03 62 1007.0
20260505202556 69 192 1.7 1.7 0.00 0.03 0.03 59 1007.1
20260505202053 69 327 0.9 0.9 0.00 0.03 0.03 60 1007.0
20260505201550 69 315 0.9 0.9 0.00 0.03 0.03 60 1007.1
20260505201048 69 315 0.9 0.9 0.00 0.03 0.03 60 1007.1
20260505200545 69 311 0.9 1.7 0.00 0.03 0.03 59 1007.3
20260505200042 69 3 0.0 0.9 0.00 0.03 0.03 58 1007.3
20260505195538 69 239 0.9 0.9 0.00 0.03 0.03 58 1007.1
20260505195036 69 323 0.9 0.9 0.00 0.03 0.03 60 1007.3
20260505194533 69 326 0.9 0.9 0.00 0.03 0.03 58 1007.7
20260505194028 69 324 0.9 0.9 0.00 0.03 0.03 59 1007.6
20260505193526 69 195 0.9 0.9 0.00 0.03 0.03 59 1007.9
20260505193023 69 258 4.3 7.0 0.00 0.03 0.03 58 1007.9
20260505192521 69 215 1.7 2.6 0.00 0.03 0.03 59 1007.9
20260505192018 69 334 0.9 0.9 0.00 0.03 0.03 59 1007.9
20260505191516 69 262 1.7 2.6 0.00 0.03 0.03 59 1007.9
20260505191014 69 261 1.7 2.6 0.00 0.03 0.03 58 1007.8
20260505190508 69 238 4.3 6.1 0.00 0.03 0.03 58 1007.9
20260505190005 68 300 0.9 1.7 0.00 0.03 0.03 59 1008.0
20260505185502 68 313 2.6 2.6 0.00 0.03 0.03 59 1008.0
20260505184958 68 302 1.7 2.6 0.00 0.03 0.03 59 1008.1
20260505184455 68 278 2.6 4.3 0.00 0.03 0.03 57 1008.0
20260505183951 69 261 1.7 2.6 0.00 0.03 0.03 58 1007.9
20260505183449 69 276 1.7 1.7 0.00 0.03 0.03 58 1008.0
20260505182945 70 256 1.7 2.6 0.00 0.03 0.03 57 1008.0
20260505182442 70 269 3.5 5.2 0.00 0.03 0.03 58 1008.0
20260505181938 70 240 3.5 4.3 0.00 0.03 0.03 56 1008.0
20260505181436 71 35 4.3 5.2 0.00 0.03 0.03 54 1007.8
20260505180933 71 306 3.5 5.2 0.00 0.03 0.03 54 1007.7
20260505180429 72 106 4.3 6.1 0.00 0.03 0.03 52 1007.7
20260505175926 72 262 4.3 4.3 0.00 0.03 0.03 52 1007.8
20260505175422 72 218 0.9 1.7 0.00 0.03 0.03 51 1007.7
20260505174918 71 326 2.6 2.6 0.00 0.03 0.03 53 1007.8
20260505174416 71 250 6.1 7.0 0.00 0.03 0.03 50 1007.4
20260505173912 72 254 4.3 5.2 0.00 0.03 0.03 51 1007.6
20260505173408 71 298 5.2 7.0 0.00 0.03 0.03 52 1007.6
20260505172905 71 200 2.6 4.3 0.00 0.03 0.03 55 1007.6
20260505172403 72 172 7.0 12.2 0.00 0.03 0.03 53 1007.6
20260505171903 72 335 1.7 2.6 0.00 0.03 0.03 53 1007.4
20260505171400 71 290 2.6 2.6 0.00 0.03 0.03 56 1007.4
20260505170856 71 343 1.7 1.7 0.00 0.03 0.03 54 1007.7
20260505170354 70 314 2.6 4.3 0.00 0.03 0.03 57 1007.6
20260505165848 70 262 2.6 4.3 0.00 0.03 0.03 56 1007.8
20260505165344 70 247 3.5 4.3 0.00 0.03 0.03 55 1007.7
20260505164840 71 158 2.6 4.3 0.00 0.03 0.03 55 1007.4
20260505164337 71 299 3.5 5.2 0.00 0.03 0.03 56 1007.4
20260505163836 71 264 4.3 6.1 0.00 0.03 0.03 54 1007.4
20260505163334 71 287 6.1 8.7 0.00 0.03 0.03 53 1007.3
20260505162832 71 245 1.7 1.7 0.00 0.03 0.03 56 1007.3
20260505162328 71 94 1.7 1.7 0.00 0.03 0.03 55 1007.3
20260505161825 70 286 3.5 4.3 0.00 0.03 0.03 55 1007.1
20260505161322 70 298 4.3 6.1 0.00 0.03 0.03 55 1007.0
20260505160819 70 19 2.6 2.6 0.00 0.03 0.03 56 1007.3
20260505160318 70 107 3.5 4.3 0.00 0.03 0.03 55 1007.4
20260505153256 68 225 1.7 2.6 0.00 0.03 0.03 61 1007.7
20260505152753 68 154 2.6 4.3 0.00 0.03 0.03 62 1007.6
20260505152249 67 342 4.3 5.2 0.00 0.03 0.03 66 1007.8
20260505151744 67 214 4.3 6.1 0.00 0.03 0.03 66 1007.8
20260505151242 66 204 2.6 2.6 0.00 0.03 0.03 68 1007.7
20260505150738 66 276 3.5 4.3 0.00 0.03 0.03 71 1008.0
20260505150235 65 218 0.9 1.7 0.00 0.03 0.03 72 1007.8
20260505140200 63 236 2.6 4.3 0.00 0.00 0.00 73 1007.7
20260505130124 65 304 1.7 1.7 0.00 0.00 0.00 63 1007.3
20260505124613 65 193 2.6 2.6 0.00 0.00 0.00 63 1007.4
20260505124110 65 159 4.3 6.1 0.00 0.00 0.00 63 1007.1
20260505123606 65 171 2.6 2.6 0.00 0.00 0.00 63 1007.3
20260505123103 65 182 3.5 4.3 0.00 0.00 0.00 63 1007.4
20260505122559 65 207 2.6 4.3 0.00 0.00 0.00 63 1007.4
20260505122056 65 244 2.6 2.6 0.00 0.00 0.00 63 1007.3
20260505121553 65 288 0.9 1.7 0.00 0.00 0.00 64 1007.3
20260505121050 65 175 2.6 2.6 0.00 0.00 0.00 64 1007.3
20260505120546 64 122 2.6 4.3 0.00 0.00 0.00 64 1007.3
20260505120042 64 151 3.5 5.2 0.00 0.00 0.00 64 1006.8
20260505115536 64 171 2.6 4.3 0.00 0.00 0.00 65 1007.3
20260505115034 64 135 2.6 4.3 0.00 0.00 0.00 65 1007.3
20260505114531 63 175 1.7 1.7 0.00 0.00 0.00 66 1007.1
20260505114027 63 193 2.6 2.6 0.00 0.00 0.00 66 1007.3
20260505113524 63 281 0.9 1.7 0.00 0.00 0.00 66 1007.4
20260505113020 63 214 1.7 1.7 0.00 0.00 0.00 66 1007.0
20260505112516 63 189 2.6 2.6 0.00 0.00 0.00 66 1007.1
20260505112014 63 147 0.9 1.7 0.00 0.00 0.00 66 1006.8
20260505111508 63 188 0.9 1.7 0.00 0.00 0.00 66 1006.8
20260505111004 63 136 3.5 4.3 0.00 0.00 0.00 66 1006.8
20260505110501 63 262 2.6 2.6 0.00 0.00 0.00 66 1006.7
20260505101933 62 106 3.5 6.1 0.00 0.00 0.00 69 1006.3
20260505101427 62 189 2.6 2.6 0.00 0.00 0.00 69 1006.3
20260505100923 62 189 2.6 2.6 0.00 0.00 0.00 69 1005.8
20260505100420 62 244 1.7 2.6 0.00 0.00 0.00 69 1006.2
20260505095915 62 249 2.6 2.6 0.00 0.00 0.00 69 1006.1
20260505095413 62 205 0.9 0.9 0.00 0.00 0.00 68 1006.1
20260505094909 62 215 1.7 1.7 0.00 0.00 0.00 68 1006.0
20260505094406 63 191 1.7 2.6 0.00 0.00 0.00 68 1006.0
20260505093901 63 187 2.6 2.6 0.00 0.00 0.00 68 1006.0
20260505093359 63 197 3.5 4.3 0.00 0.00 0.00 68 1006.0
20260505092856 63 182 2.6 4.3 0.00 0.00 0.00 68 1005.8
20260505092354 63 137 4.3 5.2 0.00 0.00 0.00 68 1006.0